Home   Weather   51°31'N, 2°34'W   Past weeks
Flag for United Kingdom

Past Weather in 51°31'N, 2°34'W, United Kingdom — Yesterday and Last 2 Weeks

Now
46 °F

Cool.


Feels Like: 43 °F
Forecast: 53 / 47 °F
Wind: 7 mph from South

Location: Bristol / Lulsgate

Current Time: Oct 17, 2019 at 7:10:31 am

Latest Report: Oct 17, 2019 at 6:20 am


Visibility: N/A

Pressure: 29.68 "Hg

Humidity: 87%

Dew Point: 43 °F

Location of 51°31'N, 2°34'WLocation

Past Weather in 51°31'N, 2°34'W — Graph

°F

51°31'N, 2°34'W Temperature Yesterday

Maximum temperature yesterday: 57 °F (at 4:50 am)
Minimum temperature yesterday: 48 °F (at 7:50 pm)
Average temperature yesterday: 53 °F

High & Low Weather Summary for the Past Weeks

 TemperatureHumidityPressure
High61 °F (Oct 5, 12:50 pm)100% (Oct 3, 6:50 pm)30.18 "Hg (Oct 3, 6:50 pm)
Low41 °F (Oct 2, 11:50 pm)55% (Oct 2, 12:50 pm)29.47 "Hg (Oct 13, 9:20 am)
Average52 °F88%29.78 "Hg
* Reported Oct 2 5:20 am — Oct 17 5:50 am, 51°31'N, 2°34'W. Weather by CustomWeather, © 2019

Note: Actual official high and low records may vary slightly from our data, if they occured in-between our weather recording intervals... More about our weather records

Advertising

51°31'N, 2°34'W Weather History for the Previous 24 Hours

Scroll right to see more
 ConditionsComfort  
Time TempWeatherWind HumidityBarometerVisibility
5:50 am
Thu, Oct 17
46 °FCool.7 mph87%29.68 "HgN/A
5:20 am46 °FCool.6 mph82%29.68 "HgN/A
4:50 am46 °FCool.6 mph87%29.68 "HgN/A
4:20 am48 °FCool.5 mph76%29.68 "HgN/A
3:50 am46 °FCool.7 mph87%29.68 "HgN/A
3:20 am46 °FCool.8 mph82%29.71 "HgN/A
2:50 am46 °FCool.7 mph87%29.71 "HgN/A
2:20 am46 °FCool.6 mph87%29.71 "HgN/A
1:50 am46 °FCool.6 mph87%29.71 "HgN/A
1:20 am46 °FCool.5 mph82%29.71 "HgN/A
12:50 am46 °FCool.6 mph87%29.71 "HgN/A
12:20 am46 °FCool.5 mph87%29.71 "HgN/A
11:50 pm
Wed, Oct 16
48 °FCool.6 mph82%29.71 "HgN/A
11:20 pm48 °FCool.5 mph82%29.71 "HgN/A
10:50 pm48 °FCool.6 mph82%29.71 "HgN/A
10:20 pm48 °FCool.7 mph82%29.71 "HgN/A
9:50 pm48 °FCool.5 mph87%29.68 "HgN/A
9:20 pm48 °FCool.3 mph82%29.68 "HgN/A
8:50 pm50 °FPassing clouds.3 mph76%29.68 "HgN/A
8:20 pm48 °FCool.6 mph82%29.68 "HgN/A
7:50 pm48 °FCool.6 mph82%29.68 "HgN/A
7:20 pm50 °FCool.5 mph76%29.68 "HgN/A
6:50 pm50 °FCool.7 mph76%29.65 "HgN/A
6:20 pm52 °FCool.9 mph72%29.65 "HgN/A
5:50 pm52 °FCool.7 mph77%29.65 "HgN/A
5:20 pm52 °FCool.8 mph77%29.65 "HgN/A
4:50 pm54 °FCool.10 mph67%29.65 "HgN/A
4:20 pm55 °FPassing clouds.9 mph72%29.65 "HgN/A
3:50 pm55 °FScattered clouds.10 mph67%29.65 "HgN/A
3:20 pm55 °FScattered clouds.10 mph72%29.65 "HgN/A
2:50 pm55 °FPartly sunny.10 mph67%29.62 "HgN/A
2:20 pm55 °FPassing clouds.12 mph67%29.62 "HgN/A
1:50 pm55 °FCool.13 mph67%29.62 "HgN/A
1:20 pm55 °FOvercast.12 mph67%29.62 "HgN/A
12:50 pm55 °FPartly sunny.13 mph67%29.62 "HgN/A
12:20 pm55 °FScattered clouds.14 mph72%29.62 "HgN/A
11:50 am55 °FCool.16 mph72%29.62 "HgN/A
11:20 am54 °FPassing clouds.16 mph77%29.62 "HgN/A
10:50 am52 °FPassing clouds.15 mph82%29.59 "HgN/A
10:20 am54 °FPartly sunny.15 mph77%29.59 "HgN/A
9:50 am52 °FScattered clouds.14 mph88%29.56 "HgN/A
9:20 am52 °FPartly sunny.15 mph82%29.56 "HgN/A
8:50 am52 °FMostly cloudy.14 mph88%29.56 "HgN/A
8:20 am52 °FOvercast.14 mph88%29.53 "HgN/A
7:50 am52 °FMostly cloudy.16 mph88%29.53 "HgN/A
7:20 am52 °FPartly cloudy.10 mph88%29.53 "HgN/A
Weather by CustomWeather, © 2019

See weather overview